Time,TemperatureF,DewpointF,PressureIn,WindDirection,WindDirectionDegrees,WindSpeedMPH,WindSpeedGustMPH,Humidity,HourlyPrecipIn,Conditions,Clouds,dailyrainin,SoftwareType,DateUTC
2013-04-19 00:00:00,60.0,60.0,28.94,ESE,112,9.0,18.0,100,0.00,,,0.00,Weather View 32 v70,2013-04-19 04:00:00,
2013-04-19 00:05:00,60.0,60.0,28.94,East,90,6.0,16.0,100,0.07,,,0.07,Weather View 32 v70,2013-04-19 04:05:00,
2013-04-19 00:10:00,60.0,60.0,28.94,SE,135,7.0,16.0,100,0.07,,,0.07,Weather View 32 v70,2013-04-19 04:10:00,
2013-04-19 00:15:00,60.0,60.0,28.94,East,90,3.0,16.0,100,0.07,,,0.07,Weather View 32 v70,2013-04-19 04:15:00,
2013-04-19 00:25:00,60.0,60.0,28.93,ESE,112,5.0,16.0,100,0.07,,,0.07,Weather View 32 v70,2013-04-19 04:25:00,
2013-04-19 00:30:00,60.0,60.0,28.93,SSE,157,4.0,15.0,100,0.07,,,0.07,Weather View 32 v70,2013-04-19 04:30:00,
2013-04-19 00:35:00,59.0,59.0,28.93,ESE,112,0.0,15.0,100,0.07,,,0.07,Weather View 32 v70,2013-04-19 04:35:00,
2013-04-19 00:40:00,59.0,59.0,28.93,East,90,0.0,15.0,100,0.07,,,0.07,Weather View 32 v70,2013-04-19 04:40:00,
2013-04-19 00:45:00,59.0,59.0,28.93,SE,135,2.0,15.0,100,0.07,,,0.07,Weather View 32 v70,2013-04-19 04:45:00,
2013-04-19 00:50:00,59.0,59.0,28.93,SSE,157,0.0,15.0,100,0.07,,,0.07,Weather View 32 v70,2013-04-19 04:50:00,
2013-04-19 00:55:00,59.0,59.0,28.92,ESE,112,2.0,15.0,100,0.07,,,0.07,Weather View 32 v70,2013-04-19 04:55:00,
2013-04-19 01:00:00,59.0,59.0,28.92,SE,135,8.0,13.0,100,0.00,,,0.00,Weather View 32 v70,2013-04-19 05:00:00,
2013-04-19 01:10:00,59.0,59.0,28.92,SE,135,3.0,13.0,100,-0.07,,,0.00,Weather View 32 v70,2013-04-19 05:10:00,
2013-04-19 01:15:00,59.0,59.0,28.92,ESE,112,6.0,13.0,100,-0.07,,,0.00,Weather View 32 v70,2013-04-19 05:15:00,
2013-04-19 01:25:00,59.0,59.0,28.91,ESE,112,7.0,17.0,100,-0.07,,,0.00,Weather View 32 v70,2013-04-19 05:25:00,
2013-04-19 01:30:00,59.0,59.0,28.91,ESE,112,9.0,17.0,100,-0.07,,,0.00,Weather View 32 v70,2013-04-19 05:30:00,
2013-04-19 01:40:00,58.0,58.0,28.91,ESE,112,6.0,17.0,100,-0.07,,,0.00,Weather View 32 v70,2013-04-19 05:40:00,
2013-04-19 01:45:00,58.0,58.0,28.90,SE,135,3.0,17.0,100,-0.07,,,0.00,Weather View 32 v70,2013-04-19 05:45:00,
2013-04-19 01:55:00,58.0,58.0,28.90,ESE,112,4.0,17.0,100,-0.07,,,0.00,Weather View 32 v70,2013-04-19 05:55:00,
2013-04-19 02:00:00,58.0,58.0,28.90,SSE,157,7.0,17.0,100,0.00,,,0.00,Weather View 32 v70,2013-04-19 06:00:00,
2013-04-19 02:05:00,58.0,58.0,28.89,SE,135,7.0,17.0,100,0.00,,,0.00,Weather View 32 v70,2013-04-19 06:05:00,
2013-04-19 02:10:00,58.0,58.0,28.89,ENE,67,10.0,17.0,100,0.00,,,0.00,Weather View 32 v70,2013-04-19 06:10:00,
2013-04-19 02:15:00,58.0,58.0,28.89,ESE,112,4.0,17.0,100,0.00,,,0.00,Weather View 32 v70,2013-04-19 06:15:00,
2013-04-19 02:25:00,58.0,58.0,28.89,South,180,1.0,17.0,100,0.00,,,0.00,Weather View 32 v70,2013-04-19 06:25:00,
2013-04-19 02:30:00,59.0,59.0,28.89,SE,135,2.0,16.0,100,0.00,,,0.00,Weather View 32 v70,2013-04-19 06:30:00,
2013-04-19 02:40:00,59.0,59.0,28.88,SE,135,7.0,17.0,100,0.00,,,0.00,Weather View 32 v70,2013-04-19 06:40:00,
2013-04-19 02:45:00,59.0,59.0,28.87,SSE,157,12.0,23.0,100,0.00,,,0.00,Weather View 32 v70,2013-04-19 06:45:00,
2013-04-19 02:55:00,59.0,59.0,28.87,ESE,112,3.0,23.0,100,0.00,,,0.00,Weather View 32 v70,2013-04-19 06:55:00,
2013-04-19 03:00:00,59.0,59.0,28.87,ESE,112,13.0,23.0,100,0.00,,,0.00,Weather View 32 v70,2013-04-19 07:00:00,
2013-04-19 03:10:00,60.0,60.0,28.86,East,90,5.0,26.0,100,0.00,,,0.00,Weather View 32 v70,2013-04-19 07:10:00,
2013-04-19 03:15:00,59.0,59.0,28.86,South,180,1.0,26.0,100,0.00,,,0.00,Weather View 32 v70,2013-04-19 07:15:00,
2013-04-19 03:25:00,58.0,58.0,28.87,East,90,6.0,26.0,100,0.00,,,0.00,Weather View 32 v70,2013-04-19 07:25:00,
2013-04-19 03:30:00,58.0,58.0,28.86,SE,135,1.0,26.0,100,0.00,,,0.00,Weather View 32 v70,2013-04-19 07:30:00,
2013-04-19 03:40:00,58.0,58.0,28.86,ESE,112,6.0,26.0,100,0.00,,,0.00,Weather View 32 v70,2013-04-19 07:40:00,
2013-04-19 03:45:00,59.0,59.0,28.86,SE,135,23.0,26.0,100,0.00,,,0.00,Weather View 32 v70,2013-04-19 07:45:00,
2013-04-19 03:55:00,59.0,59.0,28.84,ESE,112,10.0,26.0,100,0.00,,,0.00,Weather View 32 v70,2013-04-19 07:55:00,
2013-04-19 04:00:00,59.0,59.0,28.84,ESE,112,0.0,26.0,100,0.00,,,0.00,Weather View 32 v70,2013-04-19 08:00:00,
2013-04-19 04:10:00,59.0,59.0,28.85,SSE,157,3.0,26.0,100,0.00,,,0.00,Weather View 32 v70,2013-04-19 08:10:00,
2013-04-19 04:15:00,59.0,59.0,28.84,SE,135,2.0,26.0,100,0.00,,,0.00,Weather View 32 v70,2013-04-19 08:15:00,
2013-04-19 04:25:00,60.0,60.0,28.84,SSE,157,4.0,26.0,100,0.00,,,0.00,Weather View 32 v70,2013-04-19 08:25:00,
2013-04-19 04:30:00,60.0,60.0,28.83,East,90,8.0,26.0,100,0.00,,,0.00,Weather View 32 v70,2013-04-19 08:30:00,
2013-04-19 04:40:00,60.0,60.0,28.83,SE,135,4.0,26.0,100,0.00,,,0.00,Weather View 32 v70,2013-04-19 08:40:00,
2013-04-19 04:45:00,60.0,60.0,28.83,East,90,1.0,25.0,100,0.00,,,0.00,Weather View 32 v70,2013-04-19 08:45:00,
2013-04-19 04:55:00,60.0,60.0,28.83,SSE,157,2.0,24.0,100,0.00,,,0.00,Weather View 32 v70,2013-04-19 08:55:00,
2013-04-19 05:05:00,60.0,60.0,28.83,SSE,157,1.0,24.0,100,0.00,,,0.00,Weather View 32 v70,2013-04-19 09:05:00,
2013-04-19 05:10:00,60.0,60.0,28.83,ESE,112,5.0,24.0,100,0.00,,,0.00,Weather View 32 v70,2013-04-19 09:10:00,
2013-04-19 05:20:00,60.0,60.0,28.84,SE,135,7.0,23.0,100,0.00,,,0.00,Weather View 32 v70,2013-04-19 09:20:00,
2013-04-19 05:25:00,60.0,60.0,28.83,ESE,112,3.0,23.0,100,0.00,,,0.00,Weather View 32 v70,2013-04-19 09:25:00,
2013-04-19 05:35:00,60.0,60.0,28.83,SE,135,12.0,20.0,100,0.00,,,0.00,Weather View 32 v70,2013-04-19 09:35:00,
2013-04-19 05:40:00,60.0,60.0,28.82,SE,135,4.0,20.0,100,0.00,,,0.00,Weather View 32 v70,2013-04-19 09:40:00,
2013-04-19 05:47:00,60.0,60.0,28.82,SE,135,7.0,20.0,100,0.00,,,0.00,Weather View 32 v70,2013-04-19 09:47:00,
2013-04-19 05:55:00,60.0,60.0,28.82,South,180,2.0,20.0,100,0.00,,,0.00,Weather View 32 v70,2013-04-19 09:55:00,
2013-04-19 06:05:00,60.0,60.0,28.83,South,180,0.0,23.0,100,0.00,,,0.00,Weather View 32 v70,2013-04-19 10:05:00,
2013-04-19 06:15:00,60.0,60.0,28.83,ESE,112,14.0,23.0,100,0.00,,,0.00,Weather View 32 v70,2013-04-19 10:15:00,
2013-04-19 06:20:00,60.0,60.0,28.83,South,180,0.0,23.0,100,0.00,,,0.00,Weather View 32 v70,2013-04-19 10:20:00,
2013-04-19 06:30:00,60.0,60.0,28.82,ESE,112,12.0,23.0,100,0.00,,,0.00,Weather View 32 v70,2013-04-19 10:30:00,
2013-04-19 06:35:00,60.0,60.0,28.82,SE,135,7.0,23.0,100,0.00,,,0.00,Weather View 32 v70,2013-04-19 10:35:00,
2013-04-19 06:45:00,60.0,60.0,28.82,SSE,157,6.0,23.0,100,0.00,,,0.00,Weather View 32 v70,2013-04-19 10:45:00,
2013-04-19 06:55:00,60.0,60.0,28.81,SW,225,1.0,23.0,100,0.00,,,0.00,Weather View 32 v70,2013-04-19 10:55:00,
2013-04-19 07:00:00,60.0,60.0,28.82,SSE,157,4.0,22.0,100,0.00,,,0.00,Weather View 32 v70,2013-04-19 11:00:00,
2013-04-19 07:10:00,61.0,61.0,28.82,ESE,112,10.0,21.0,100,0.00,,,0.00,Weather View 32 v70,2013-04-19 11:10:00,
2013-04-19 07:15:00,61.0,61.0,28.82,SE,135,0.0,21.0,100,0.00,,,0.00,Weather View 32 v70,2013-04-19 11:15:00,
2013-04-19 14:50:00,70.0,65.6,28.55,South,180,19.0,34.0,86,0.00,,,0.00,Weather View 32 v70,2013-04-19 18:50:00,
2013-04-19 14:55:00,70.0,65.6,28.56,SSE,157,1.0,36.0,86,0.00,,,0.00,Weather View 32 v70,2013-04-19 18:55:00,
2013-04-19 15:00:00,70.0,65.6,28.55,South,180,14.0,36.0,86,0.00,,,0.00,Weather View 32 v70,2013-04-19 19:00:00,
2013-04-19 15:10:00,70.0,65.6,28.54,SW,225,6.0,36.0,86,0.00,,,0.00,Weather View 32 v70,2013-04-19 19:10:00,
2013-04-19 15:20:00,70.0,64.9,28.55,South,180,15.0,38.0,84,0.00,,,0.00,Weather View 32 v70,2013-04-19 19:20:00,
2013-04-19 15:25:00,70.0,65.6,28.55,ESE,112,19.0,38.0,86,0.00,,,0.00,Weather View 32 v70,2013-04-19 19:25:00,
2013-04-19 15:35:00,71.0,66.6,28.54,SSE,157,4.0,38.0,86,0.00,,,0.00,Weather View 32 v70,2013-04-19 19:35:00,
2013-04-19 15:45:00,70.0,65.3,28.54,SSE,157,22.0,41.0,85,0.00,,,0.00,Weather View 32 v70,2013-04-19 19:45:00,
2013-04-19 15:50:00,71.0,65.9,28.53,SSE,157,10.0,41.0,84,0.00,,,0.00,Weather View 32 v70,2013-04-19 19:50:00,
2013-04-19 16:00:00,71.0,66.2,28.53,South,180,9.0,41.0,85,0.00,,,0.00,Weather View 32 v70,2013-04-19 20:00:00,
2013-04-19 16:05:00,70.0,65.3,28.52,ESE,112,17.0,41.0,85,0.00,,,0.00,Weather View 32 v70,2013-04-19 20:05:00,
2013-04-19 16:15:00,70.0,65.6,28.53,SSW,202,4.0,41.0,86,0.00,,,0.00,Weather View 32 v70,2013-04-19 20:15:00,
2013-04-19 16:20:00,70.0,65.9,28.52,SSE,157,19.0,41.0,87,0.00,,,0.00,Weather View 32 v70,2013-04-19 20:20:00,
2013-04-19 16:30:00,70.0,66.3,28.52,SE,135,23.0,41.0,88,0.00,,,0.00,Weather View 32 v70,2013-04-19 20:30:00,
2013-04-19 16:40:00,70.0,66.3,28.53,SSE,157,16.0,40.0,88,0.00,,,0.00,Weather View 32 v70,2013-04-19 20:40:00,
2013-04-19 16:47:00,70.0,66.3,28.53,South,180,9.0,37.0,88,0.00,,,0.00,Weather View 32 v70,2013-04-19 20:47:00,
2013-04-19 16:55:00,69.0,65.6,28.52,SSE,157,18.0,37.0,89,0.00,,,0.00,Weather View 32 v70,2013-04-19 20:55:00,
2013-04-19 17:05:00,70.0,66.3,28.51,South,180,4.0,36.0,88,0.00,,,0.00,Weather View 32 v70,2013-04-19 21:05:00,
2013-04-19 17:10:00,69.0,66.3,28.51,SE,135,12.0,36.0,91,0.00,,,0.00,Weather View 32 v70,2013-04-19 21:10:00,
2013-04-19 17:20:00,68.0,67.1,28.52,SE,135,10.0,36.0,97,0.00,,,0.00,Weather View 32 v70,2013-04-19 21:20:00,
2013-04-19 17:25:00,68.0,68.0,28.52,SSE,157,14.0,36.0,100,0.01,,,0.01,Weather View 32 v70,2013-04-19 21:25:00,
2013-04-19 17:35:00,67.0,67.0,28.53,SE,135,15.0,36.0,100,0.01,,,0.01,Weather View 32 v70,2013-04-19 21:35:00,
2013-04-19 17:45:00,67.0,67.0,28.53,SSE,157,12.0,33.0,100,0.02,,,0.02,Weather View 32 v70,2013-04-19 21:45:00,
2013-04-19 17:50:00,67.0,67.0,28.52,SE,135,6.0,33.0,100,0.03,,,0.03,Weather View 32 v70,2013-04-19 21:50:00,
2013-04-19 17:55:00,67.0,67.0,28.53,SE,135,6.0,33.0,100,0.05,,,0.05,Weather View 32 v70,2013-04-19 21:55:00,
2013-04-19 18:00:00,66.0,66.0,28.53,SSE,157,13.0,33.0,100,0.07,,,0.07,Weather View 32 v70,2013-04-19 22:00:00,
2013-04-19 18:05:00,66.0,66.0,28.52,SE,135,13.0,29.0,100,0.08,,,0.08,Weather View 32 v70,2013-04-19 22:05:00,
2013-04-19 18:10:00,67.0,67.0,28.52,SW,225,7.0,23.0,100,0.09,,,0.09,Weather View 32 v70,2013-04-19 22:10:00,
2013-04-19 18:20:00,61.0,61.0,28.58,WNW,292,13.0,50.0,100,0.22,,,0.22,Weather View 32 v70,2013-04-19 22:20:00,
2013-04-19 18:30:00,59.0,59.0,28.60,SSW,202,14.0,50.0,100,0.31,,,0.32,Weather View 32 v70,2013-04-19 22:30:00,
2013-04-19 18:40:00,59.0,59.0,28.60,West,270,7.0,50.0,100,0.36,,,0.38,Weather View 32 v70,2013-04-19 22:40:00,
2013-04-19 18:45:00,59.0,59.0,28.62,West,270,10.0,50.0,100,0.43,,,0.45,Weather View 32 v70,2013-04-19 22:45:00,
2013-04-19 18:55:00,58.0,58.0,28.61,WNW,292,12.0,50.0,100,0.46,,,0.51,Weather View 32 v70,2013-04-19 22:55:00,
2013-04-19 19:00:00,58.0,58.0,28.59,West,270,22.0,50.0,100,0.45,,,0.52,Weather View 32 v70,2013-04-19 23:00:00,
2013-04-19 19:10:00,58.0,58.0,28.60,WNW,292,10.0,50.0,100,0.45,,,0.54,Weather View 32 v70,2013-04-19 23:10:00,
2013-04-19 19:15:00,58.0,58.0,28.61,NW,315,13.0,50.0,100,0.45,,,0.55,Weather View 32 v70,2013-04-19 23:15:00,
2013-04-19 19:25:00,57.0,57.0,28.61,West,270,16.0,37.0,100,0.32,,,0.56,Weather View 32 v70,2013-04-19 23:25:00,
2013-04-19 19:30:00,57.0,57.0,28.61,WNW,292,15.0,37.0,100,0.25,,,0.57,Weather View 32 v70,2013-04-19 23:30:00,
2013-04-19 19:40:00,56.0,56.0,28.63,West,270,10.0,38.0,100,0.19,,,0.57,Weather View 32 v70,2013-04-19 23:40:00,
2013-04-19 19:49:00,56.0,56.0,28.63,West,270,11.0,38.0,100,0.12,,,0.57,Weather View 32 v70,2013-04-19 23:49:00,
2013-04-19 19:55:00,55.0,55.0,28.63,West,270,14.0,38.0,100,0.06,,,0.57,Weather View 32 v70,2013-04-19 23:55:00,
2013-04-19 20:05:00,56.0,56.0,28.63,WSW,247,14.0,38.0,100,0.04,,,0.57,Weather View 32 v70,2013-04-20 00:05:00,
2013-04-19 20:15:00,56.0,56.0,28.64,NW,315,22.0,39.0,100,0.03,,,0.58,Weather View 32 v70,2013-04-20 00:15:00,
2013-04-19 20:25:00,56.0,52.5,28.63,NW,315,19.0,39.0,88,0.02,,,0.58,Weather View 32 v70,2013-04-20 00:25:00,
2013-04-19 20:35:00,56.0,52.5,28.63,WNW,292,18.0,40.0,88,0.01,,,0.58,Weather View 32 v70,2013-04-20 00:35:00,
2013-04-19 20:40:00,56.0,52.8,28.63,WNW,292,17.0,40.0,89,0.01,,,0.58,Weather View 32 v70,2013-04-20 00:40:00,
2013-04-19 20:49:00,55.0,53.0,28.64,WNW,292,15.0,40.0,93,0.01,,,0.58,Weather View 32 v70,2013-04-20 00:49:00,
2013-04-19 20:55:00,54.0,52.6,28.63,West,270,22.0,40.0,95,0.01,,,0.58,Weather View 32 v70,2013-04-20 00:55:00,
2013-04-19 21:05:00,53.0,53.0,28.67,NW,315,18.0,40.0,100,0.01,,,0.58,Weather View 32 v70,2013-04-20 01:05:00,
2013-04-19 21:10:00,54.0,50.2,28.69,West,270,5.0,40.0,87,0.01,,,0.58,Weather View 32 v70,2013-04-20 01:10:00,
2013-04-19 21:20:00,54.0,49.9,28.70,WNW,292,17.0,40.0,86,0.00,,,0.58,Weather View 32 v70,2013-04-20 01:20:00,
2013-04-19 21:25:00,53.0,48.3,28.69,WNW,292,12.0,40.0,84,0.00,,,0.58,Weather View 32 v70,2013-04-20 01:25:00,
2013-04-19 21:35:00,53.0,48.9,28.70,WNW,292,9.0,36.0,86,0.00,,,0.58,Weather View 32 v70,2013-04-20 01:35:00,
2013-04-19 21:45:00,53.0,45.3,28.71,West,270,6.0,36.0,75,0.00,,,0.58,Weather View 32 v70,2013-04-20 01:45:00,
2013-04-19 21:50:00,53.0,46.0,28.71,West,270,13.0,34.0,77,0.00,,,0.58,Weather View 32 v70,2013-04-20 01:50:00,
2013-04-19 22:00:00,53.0,44.2,28.73,West,270,10.0,41.0,72,0.00,,,0.58,Weather View 32 v70,2013-04-20 02:00:00,
2013-04-19 22:05:00,53.0,46.3,28.73,NW,315,13.0,41.0,78,0.00,,,0.58,Weather View 32 v70,2013-04-20 02:05:00,
2013-04-19 22:15:00,52.0,45.3,28.73,West,270,13.0,41.0,78,0.00,,,0.58,Weather View 32 v70,2013-04-20 02:15:00,
2013-04-19 22:20:00,52.0,46.0,28.74,West,270,8.0,41.0,80,0.00,,,0.58,Weather View 32 v70,2013-04-20 02:20:00,
2013-04-19 22:30:00,52.0,42.9,28.75,WNW,292,7.0,41.0,71,0.00,,,0.58,Weather View 32 v70,2013-04-20 02:30:00,
2013-04-19 22:35:00,52.0,44.3,28.75,WNW,292,5.0,41.0,75,0.00,,,0.58,Weather View 32 v70,2013-04-20 02:35:00,
2013-04-19 22:40:00,52.0,45.0,28.75,NW,315,3.0,41.0,77,0.00,,,0.58,Weather View 32 v70,2013-04-20 02:40:00,
2013-04-19 22:45:00,52.0,44.7,28.74,WNW,292,10.0,41.0,76,0.00,,,0.58,Weather View 32 v70,2013-04-20 02:45:00,
2013-04-19 22:50:00,52.0,43.6,28.74,NW,315,10.0,41.0,73,0.00,,,0.58,Weather View 32 v70,2013-04-20 02:50:00,
2013-04-19 23:00:00,51.0,43.0,28.75,West,270,7.0,23.0,74,0.00,,,0.58,Weather View 32 v70,2013-04-20 03:00:00,
2013-04-19 23:10:00,51.0,44.7,28.76,WNW,292,17.0,31.0,79,0.00,,,0.58,Weather View 32 v70,2013-04-20 03:10:00,
2013-04-19 23:15:00,50.0,44.7,28.76,WNW,292,7.0,31.0,82,0.00,,,0.58,Weather View 32 v70,2013-04-20 03:15:00,
2013-04-19 23:25:00,51.0,44.4,28.77,West,270,13.0,31.0,78,0.00,,,0.58,Weather View 32 v70,2013-04-20 03:25:00,
2013-04-19 23:30:00,51.0,44.4,28.76,West,270,15.0,31.0,78,0.00,,,0.58,Weather View 32 v70,2013-04-20 03:30:00,
2013-04-19 23:40:00,50.0,43.7,28.76,NW,315,15.0,32.0,79,0.00,,,0.58,Weather View 32 v70,2013-04-20 03:40:00,
2013-04-19 23:50:00,50.0,44.4,28.77,WNW,292,10.0,32.0,81,0.00,,,0.58,Weather View 32 v70,2013-04-20 03:50:00,